[[{"header":{"parameterUnit":"m.s-1","parameterCategory":1,"la1":30.2991,"la2":30.254,"lo1":-89.0895,"lo2":-89.0444,"dy":0.0017,"dx":0.0017,"nx":28,"ny":28,"refTime":"2024-06-16T21:00:00:Z","depth":0,"parameterNumber":2,"parameterNumberName":"U-component_of_WINDS"},"data":[0,0,0,0,0,0,0,0,0,0,0,0,0,0,0,0,0,0,0,0,0,0,0,0,0,0,0,0,0,0,0,0,0,0,0,0,0,0,0,0,0,0,0,0,0,0,0,0,0,0,0,0,0,0,0,0,0,0,-3.1459,-3.1459,0,-3.1419,-3.1419,-3.1419,-3.1429,-3.143,-3.1431,-3.1432,-3.1385,-3.1383,-3.1382,0,0,0,0,0,0,0,0,0,0,0,0,0,-3.1539,-3.1537,-3.1459,-3.1459,-3.1458,-3.142,-3.1419,-3.1418,-3.1429,-3.143,-3.1431,-3.1432,-3.1386,-3.1384,-3.1381,0,0,0,0,0,0,0,0,0,0,0,0,0,-3.1502,-3.1537,-3.1459,-3.1459,-3.1459,-3.142,-3.1419,-3.1418,-3.1429,-3.143,-3.1431,-3.1432,-3.1387,-3.1384,-3.1381,-3.1338,0,0,-3.1372,-3.1371,0,0,0,0,0,0,0,0,-3.1504,-3.1499,-3.1459,-3.1459,-3.1458,-3.1431,-3.143,-3.1391,-3.1429,-3.144,-3.1432,-3.1433,-3.1399,-3.1395,-3.1385,-3.1336,-3.1334,-3.1372,-3.137,-3.1369,-3.1368,0,0,0,0,0,0,0,-3.1507,-3.1501,-3.1443,-3.1459,-3.1458,-3.1459,-3.1455,-3.1423,-3.1413,-3.1439,-3.144,-3.1435,-3.1399,-3.1388,-3.1384,-3.1333,-3.1372,-3.1369,-3.1367,-3.1366,-3.1246,-3.1244,0,0,0,0,0,0,-3.151,-3.1503,-3.1445,-3.1442,-3.1485,-3.1457,-3.1452,-3.1438,-3.1413,-3.1411,-3.1434,-3.1436,-3.1392,-3.1387,-3.1382,-3.1329,-3.1369,-3.1366,-3.1364,-3.1247,-3.1245,-3.1244,0,0,0,0,0,0,-3.1512,-3.1505,-3.1446,-3.1473,-3.1465,-3.1454,-3.1438,-3.1437,-3.1426,-3.141,-3.1408,-3.1425,-3.1393,-3.1386,-3.1349,-3.1328,-3.1364,-3.1362,-3.1249,-3.1246,-3.1244,-3.1223,0,0,0,0,0,0,-3.1514,-3.1506,-3.1491,-3.1472,-3.1464,-3.1415,-3.1437,-3.1435,-3.1421,-3.1423,-3.14,-3.1398,-3.1393,-3.1354,-3.1346,-3.1324,-3.1359,-3.125,-3.1248,-3.1245,-3.1226,-3.1221,-3.1217,0,0,0,0,0,-3.1517,-3.1485,-3.149,-3.1483,-3.1445,-3.1414,-3.1409,-3.1406,-3.1419,-3.1403,-3.1393,-3.1399,-3.1332,-3.135,-3.1341,-3.1318,-3.1252,-3.1248,-3.1245,-3.1228,-3.1222,-3.1217,0,0,0,0,0,0,-3.15,-3.1483,-3.1488,-3.145,-3.1433,-3.1416,-3.1396,-3.14,-3.1378,-3.1381,-3.1376,-3.1371,-3.1332,-3.1322,-3.1342,-3.1275,-3.1293,-3.1288,-3.1283,-3.1277,-3.1272,-3.1275,-3.1357,0,0,0,0,0,-3.1492,-3.147,-3.1456,-3.1424,-3.1415,-3.1407,-3.1393,-3.1393,-3.1375,-3.1367,-3.1354,-3.1335,-3.131,-3.1293,-3.1269,-3.1225,-3.1219,-3.1205,-3.12,-3.1196,-3.1191,-3.1165,-3.1158,-3.1233,-3.1233,-3.1233,0,0,-3.1475,-3.1463,-3.1449,-3.142,-3.1407,-3.1382,-3.1401,-3.1374,-3.1355,-3.1363,-3.1327,-3.1316,-3.1295,-3.1254,-3.1235,-3.1243,-3.117,-3.1192,-3.1189,-3.1187,-3.1161,-3.1154,-3.1148,-3.1231,-3.1231,-3.1232,0,0,-3.1431,-3.1421,-3.1392,-3.1379,-3.136,-3.1354,-3.1348,-3.1329,-3.1323,-3.1288,-3.1292,-3.1269,-3.1225,-3.1209,-3.1195,-3.1145,-3.1148,-3.1137,-3.1111,-3.1086,-3.108,-3.1075,-3.1054,-3.1047,-3.1132,-3.1132,-3.1132,0,-3.1411,-3.1376,-3.1376,-3.1349,-3.1335,-3.1342,-3.1312,-3.1299,-3.1272,-3.1261,-3.1272,-3.1217,-3.1203,-3.1158,-3.1145,-3.1134,-3.1124,-3.1138,-3.1081,-3.1076,-3.1071,-3.1051,-3.1044,-3.1131,-3.1131,-3.1131,-3.1131,0,-3.1352,-3.1327,-3.1306,-3.1282,-3.1265,-3.1237,-3.123,-3.1214,-3.1214,-3.1207,-3.1169,-3.1153,-3.1125,-3.1114,-3.1114,-3.1067,-3.1073,-3.1083,-3.1101,-3.1062,-3.1044,-3.1037,-3.1129,-3.1129,-3.113,-3.113,0,0,-3.1296,-3.1272,-3.1264,-3.1252,-3.1231,-3.1211,-3.1182,-3.1156,-3.1141,-3.1122,-3.1096,-3.1059,-3.1067,-3.1051,-3.1049,-3.1027,-3.0986,-3.1039,-3.1039,-3.1028,-3.0931,-3.0923,-3.0914,-3.0989,-3.0987,-3.0986,-3.0932,0,-3.1248,-3.1199,-3.1197,-3.1151,-3.1127,-3.1133,-3.1107,-3.1091,-3.1083,-3.106,-3.1051,-3.1024,-3.1038,-3.1028,-3.1007,-3.0995,-3.0966,-3.0999,-3.0962,-3.096,-3.0965,-3.0905,-3.0896,-3.0846,-3.0925,-3.0924,-3.0923,0,-3.1187,-3.1167,-3.1118,-3.11,-3.109,-3.1067,-3.1042,-3.1021,-3.1001,-3.0997,-3.0979,-3.0981,-3.0948,-3.0969,-3.0923,-3.0946,-3.093,-3.0922,-3.092,-3.0915,-3.0938,-3.0896,-3.083,-3.0822,-3.0912,-3.0913,-3.0914,0,-3.1148,-3.1109,-3.1075,-3.1065,-3.1043,-3.1027,-3.1016,-3.0998,-3.0982,-3.096,-3.0949,-3.0923,-3.0909,-3.0887,-3.088,-3.0897,-3.0834,-3.0855,-3.0827,-3.0827,-3.0812,-3.0813,-3.0741,-3.0806,-3.0806,-3.0806,-3.0806,0,-3.1094,-3.1064,-3.1057,-3.1036,-3.1001,-3.0999,-3.0964,-3.0955,-3.0939,-3.0914,-3.0918,-3.0894,-3.0887,-3.0862,-3.0856,-3.0818,-3.0811,-3.0805,-3.0804,-3.0804,-3.0804,-3.0792,-3.0795,-3.0804,-3.0804,-3.0805,-3.0805,0,-3.1045,-3.104,-3.1002,-3.0985,-3.098,-3.0954,-3.0939,-3.0917,-3.091,-3.0878,-3.0871,-3.0859,-3.0829,-3.082,-3.0784,-3.078,-3.0734,-3.0737,-3.0741,-3.0741,-3.0713,-3.0715,-3.0629,-3.0617,-3.0691,-3.0691,-3.069,0,-3.101,-3.0987,-3.0967,-3.0952,-3.0941,-3.0916,-3.09,-3.0897,-3.0879,-3.0855,-3.0835,-3.0807,-3.0783,-3.0734,-3.0721,-3.0693,-3.0693,-3.0665,-3.0689,-3.0689,-3.069,-3.0691,-3.0688,-3.066,-3.0659,-3.0659,-3.0658,0,-3.0949,-3.0947,-3.0925,-3.0901,-3.0882,-3.0863,-3.0844,-3.083,-3.0824,-3.0804,-3.0774,-3.0756,-3.0719,-3.0689,-3.0661,-3.0648,-3.0651,-3.0651,-3.0643,-3.0642,-3.0644,-3.064,-3.0727,-3.0653,-3.0653,-3.0653,-3.0654,-3.0654,-3.0904,-3.0884,-3.0866,-3.084,-3.0826,-3.0809,-3.0787,-3.0777,-3.0753,-3.0724,-3.0723,-3.069,-3.0669,-3.0631,-3.0617,-3.0589,-3.0597,-3.0586,-3.0583,-3.0579,-3.0576,-3.0651,-3.0584,-3.0584,-3.0584,-3.0585,-3.0585,0,-3.0842,-3.0831,-3.0807,-3.0781,-3.0761,-3.0768,-3.0747,-3.0728,-3.07,-3.0681,-3.0658,-3.0622,-3.0593,-3.0578,-3.0548,-3.0529,-3.0529,-3.0521,-3.0521,-3.0518,-3.0572,-3.0581,-3.0521,-3.0521,-3.0521,-3.0521,-3.0521,-3.0521,-3.0806,-3.0771,-3.0767,-3.0723,-3.0712,-3.0681,-3.0668,-3.0651,-3.0636,-3.0597,-3.0573,-3.0564,-3.0545,-3.0514,-3.0487,-3.0483,-3.0471,-3.0461,-3.0457,-3.0508,-3.0514,-3.052,-3.0529,-3.0459,-3.0459,-3.0406,-3.0405,-3.0405]},{"header":{"parameterUnit":"m.s-1","parameterCategory":1,"la1":30.2991,"la2":30.254,"lo1":-89.0895,"lo2":-89.0444,"dy":0.0017,"dx":0.0017,"nx":28,"ny":28,"refTime":"2024-06-16T21:00:00:Z","depth":0,"parameterNumber":3,"parameterNumberName":"V-component_of_WINDS"},"data":[0,0,0,0,0,0,0,0,0,0,0,0,0,0,0,0,0,0,0,0,0,0,0,0,0,0,0,0,0,0,0,0,0,0,0,0,0,0,0,0,0,0,0,0,0,0,0,0,0,0,0,0,0,0,0,0,0,0,6.2328,6.2329,0,6.2467,6.2469,6.247,6.2444,6.2441,6.2439,6.2436,6.2576,6.2582,6.2588,0,0,0,0,0,0,0,0,0,0,0,0,0,6.2036,6.2041,6.2327,6.2329,6.2331,6.2467,6.2469,6.2471,6.2444,6.2441,6.2438,6.2435,6.2574,6.2581,6.2589,0,0,0,0,0,0,0,0,0,0,0,0,0,6.2167,6.2043,6.2327,6.2334,6.2336,6.2466,6.2469,6.2471,6.2445,6.2441,6.2437,6.2434,6.2572,6.2581,6.259,6.2721,0,0,6.2617,6.2621,0,0,0,0,0,0,0,0,6.216,6.2178,6.2331,6.2334,6.2336,6.2434,6.2417,6.2555,6.2446,6.2404,6.2436,6.2432,6.2532,6.2544,6.2578,6.2727,6.2733,6.2618,6.2624,6.2628,6.263,0,0,0,0,0,0,0,6.2151,6.2172,6.2383,6.2334,6.2337,6.233,6.2344,6.2443,6.2487,6.2407,6.2405,6.2422,6.2532,6.257,6.2581,6.2735,6.2618,6.2626,6.2632,6.2635,6.3,6.3004,0,0,0,0,0,0,6.214,6.2165,6.2378,6.2387,6.2237,6.2338,6.2354,6.2407,6.2486,6.2494,6.2426,6.2421,6.2556,6.2571,6.2586,6.2745,6.2628,6.2636,6.2641,6.2995,6.3,6.3005,0,0,0,0,0,0,6.2134,6.2159,6.2372,6.2275,6.2302,6.2347,6.2406,6.2411,6.2448,6.25,6.2507,6.2456,6.2554,6.2573,6.2688,6.275,6.264,6.2648,6.299,6.2997,6.3003,6.3064,0,0,0,0,0,0,6.2125,6.2157,6.2208,6.2277,6.2307,6.2473,6.241,6.2417,6.2465,6.246,6.253,6.2538,6.2552,6.2674,6.2697,6.276,6.2655,6.2985,6.2993,6.3001,6.3057,6.3072,6.3085,0,0,0,0,0,6.2115,6.2219,6.221,6.2236,6.2372,6.2476,6.2494,6.2509,6.247,6.2521,6.2554,6.2536,6.274,6.2686,6.2711,6.2778,6.2981,6.2991,6.3,6.3051,6.3069,6.3085,0,0,0,0,0,0,6.2154,6.2228,6.2219,6.2349,6.2407,6.2472,6.2536,6.2528,6.2597,6.2589,6.2604,6.262,6.2737,6.2769,6.2708,6.291,6.2855,6.287,6.2885,6.2902,6.2916,6.2906,6.2663,0,0,0,0,0,6.2178,6.2258,6.2317,6.2425,6.2455,6.2491,6.2537,6.2544,6.2604,6.2628,6.2669,6.2728,6.2805,6.2855,6.2929,6.3062,6.3077,6.312,6.3134,6.3145,6.3158,6.3231,6.3251,6.3036,6.3036,6.3036,0,0,6.2228,6.2278,6.2327,6.2435,6.248,6.2562,6.2512,6.26,6.266,6.2641,6.2752,6.2785,6.2851,6.2975,6.3032,6.3006,6.3221,6.3158,6.3166,6.3173,6.3243,6.3263,6.3281,6.3043,6.3042,6.3041,0,0,6.236,6.2406,6.2501,6.2549,6.2619,6.2643,6.2666,6.2733,6.2754,6.2866,6.2854,6.2926,6.3058,6.3106,6.3148,6.33,6.3286,6.3324,6.3397,6.3468,6.3485,6.35,6.3554,6.3574,6.3336,6.3337,6.3337,0,6.2412,6.2536,6.2551,6.2642,6.2689,6.2677,6.2774,6.2819,6.2909,6.2942,6.2912,6.3079,6.3123,6.3259,6.3296,6.333,6.3357,6.3316,6.3481,6.3497,6.3511,6.3563,6.3584,6.3341,6.334,6.334,6.3339,0,6.2597,6.2683,6.2751,6.2841,6.2896,6.2989,6.3019,6.3073,6.3075,6.3102,6.3216,6.3269,6.3353,6.3386,6.3388,6.3523,6.3504,6.3478,6.3422,6.3535,6.3585,6.3605,6.3347,6.3345,6.3344,6.3343,0,0,6.2757,6.2855,6.288,6.2921,6.2998,6.3065,6.3157,6.3241,6.3288,6.3351,6.3429,6.3542,6.3518,6.3566,6.3574,6.3636,6.3754,6.3602,6.3604,6.3629,6.3906,6.3926,6.3949,6.3746,6.375,6.3753,6.3901,0,6.2896,6.3061,6.3078,6.3225,6.3305,6.3295,6.3376,6.3432,6.3459,6.353,6.356,6.3641,6.3603,6.3632,6.3693,6.3727,6.381,6.3717,6.3818,6.3821,6.3802,6.3974,6.3995,6.4132,6.392,6.3923,6.3926,0,6.3081,6.3152,6.3307,6.3374,6.3408,6.3481,6.356,6.3628,6.3691,6.3707,6.3761,6.3761,6.3856,6.3798,6.3929,6.3865,6.3908,6.3931,6.3937,6.3946,6.388,6.3989,6.4176,6.4197,6.3956,6.3954,6.3951,0,6.3183,6.3316,6.3426,6.3461,6.3543,6.3594,6.363,6.369,6.374,6.3809,6.3842,6.392,6.3963,6.4024,6.4045,6.4001,6.4176,6.4119,6.4191,6.4191,6.4228,6.4226,6.4425,6.4256,6.4256,6.4255,6.4255,0,6.3337,6.3432,6.3473,6.3541,6.3648,6.3667,6.3771,6.3805,6.3859,6.3932,6.3928,6.3998,6.4022,6.4095,6.4112,6.4219,6.4238,6.4253,6.4256,6.4254,6.4252,6.4281,6.4272,6.4261,6.426,6.4259,6.4258,0,6.3468,6.3499,6.3619,6.3687,6.3707,6.3782,6.384,6.3905,6.3932,6.4026,6.4049,6.4091,6.4177,6.4205,6.4309,6.432,6.4445,6.444,6.4424,6.4424,6.4495,6.4488,6.4721,6.4752,6.4562,6.4564,6.4565,0,6.3565,6.3638,6.3715,6.3764,6.3803,6.3883,6.3934,6.3956,6.401,6.4088,6.4144,6.423,6.43,6.4438,6.4477,6.4557,6.4554,6.463,6.4565,6.4561,6.4555,6.4551,6.4558,6.4641,6.4643,6.4645,6.4646,0,6.3733,6.3745,6.3819,6.3901,6.3962,6.4027,6.4089,6.4129,6.416,6.422,6.4309,6.4363,6.447,6.4555,6.4637,6.4673,6.4665,6.4666,6.4688,6.4685,6.4673,6.4681,6.4457,6.4661,6.4659,6.4658,6.4658,6.4657,6.385,6.3915,6.3979,6.4063,6.4112,6.4171,6.4236,6.4272,6.4346,6.4436,6.4444,6.454,6.4602,6.4711,6.4752,6.4827,6.4805,6.4835,6.4843,6.485,6.4856,6.4661,6.4841,6.4841,6.4841,6.484,6.484,0,6.4018,6.4059,6.4136,6.4224,6.429,6.4278,6.4346,6.4402,6.4487,6.4546,6.4615,6.4718,6.4801,6.4847,6.493,6.4981,6.498,6.5003,6.4999,6.5008,6.487,6.4844,6.5002,6.5002,6.5002,6.5002,6.5002,6.5002,6.4113,6.4223,6.4243,6.4377,6.4418,6.4513,6.4553,6.4607,6.4654,6.4769,6.4839,6.4869,6.4924,6.5011,6.5086,6.5098,6.5129,6.5154,6.5163,6.5034,6.5017,6.5001,6.4977,6.516,6.516,6.5294,6.5295,6.5296]}]]